Location: Unspecified
(47.6567°N, 0.0000°E)
Time: 10:27:25
(UTC+00:00)

ISS - Visible Passes

Search period start: 21 May 2019 00:00
Search period end: 31 May 2019 00:00
Orbit: 407 x 410 km, 51.6° (Epoch: 21 May)

Date Brightness Start Highest point End Pass type
(mag) Time Alt. Az. Time Alt. Az. Time Alt. Az.
21 May -1.6 01:36:24 10° WNW 01:37:07 15° WNW 01:37:07 15° WNW visible
21 May -3.0 21:31:46 10° W 21:35:01 54° NNW 21:38:17 10° ENE visible
21 May -2.5 23:08:48 10° WNW 23:11:57 40° N 23:14:14 16° ENE visible
22 May -2.0 00:45:26 10° WNW 00:46:54 24° WNW 00:46:54 24° WNW visible
22 May -3.5 20:40:42 10° WSW 20:44:01 72° NNW 20:47:19 10° ENE visible
22 May -2.4 22:17:44 10° WNW 22:20:53 39° N 22:24:01 10° ENE visible
22 May -3.1 23:54:29 10° WNW 23:57:13 52° NNW 23:57:13 52° NNW visible
23 May -2.5 21:26:37 10° W 21:29:47 41° N 21:32:58 10° ENE visible
23 May -3.0 23:03:30 10° WNW 23:06:45 50° NNE 23:07:41 36° ENE visible
24 May -1.1 00:40:08 10° WNW 00:40:23 12° WNW 00:40:23 12° WNW visible
24 May -2.7 20:35:29 10° W 20:38:42 48° NNW 20:41:56 10° ENE visible
24 May -2.6 22:12:30 10° WNW 22:15:40 42° N 22:18:12 15° ENE visible
24 May -2.3 23:49:06 10° WNW 23:50:54 29° WNW 23:50:54 29° WNW visible
25 May -2.4 21:21:25 10° WNW 21:24:33 39° N 21:27:42 10° ENE visible
25 May -3.8 22:58:05 10° WNW 23:01:25 77° NNE 23:01:28 76° NE visible
26 May -2.4 20:30:17 10° WNW 20:33:26 40° N 20:36:35 10° ENE visible
26 May -3.2 22:07:05 10° WNW 22:10:22 56° NNE 22:12:04 25° E visible
26 May -1.6 23:43:47 10° WNW 23:44:47 17° W 23:44:47 17° W visible
27 May -2.8 21:16:03 10° WNW 21:19:16 45° N 21:22:28 10° E visible
27 May -3.3 22:52:40 10° WNW 22:55:23 49° WSW 22:55:23 49° WSW visible
28 May -2.5 20:24:58 10° WNW 20:28:08 40° N 20:31:17 10° ENE visible
28 May -3.9 22:01:37 10° WNW 22:04:56 89° SSW 22:06:01 39° ESE visible
29 May -3.5 21:10:34 10° WNW 21:13:52 65° NNE 21:16:41 13° E visible
29 May -2.2 22:47:22 10° W 22:49:24 25° WSW 22:49:24 25° WSW visible
30 May -3.4 21:56:08 10° WNW 21:59:20 46° SSW 22:00:04 38° S visible
